Regional Weather Roundup
Issued by NWS Binghamton, NY

Home | Current Version | Previous Version | Text Only | Print | Product List | Glossary On
Versions: 1 2 3 4 5 6 7 8 9 10 11 12 13 14 15 16 17 18 19 20 21 22 23 24 25 26 27 28 29 30 31 32 33 34 35 36 37 38 39 40 41 42 43 44 45 46 47 48 49 50
128
ASUS41 KBGM 241210
RWRBGM

REGIONAL WEATHER ROUNDUP
NATIONAL WEATHER SERVICE BINGHAMTON NY
800 AM EDT TUE MAY 24 2016

Note: "fair" indicates few or no clouds below 12,000 feet with no
significant weather and/or obstructions to visibility.

* = Station(s) that does not report precipitation, such as rain,
snow, etc, also no thunder or fog.

NYZ009-015>018-022>025-036-037-044>046-055>057-062-241300
...Central New York...

CITY           SKY/WX    TMP DP  RH WIND       PRES   REMARKS
Binghamton     MOSUNNY   60  42  51 NW8       29.96R
Cortland       FAIR      54  46  76 W3        29.98S
Dansville      MOSUNNY   53  45  74 S5        30.02R
Elmira         SUNNY     55  46  71 SW6       29.99S
Ithaca         MOSUNNY   56  49  77 CALM      29.99S
Hamilton       SUNNY     57  46  67 CALM      29.96S
Hornell        SUNNY     48  45  87 CALM      30.06S
Monticello     PTSUNNY   55  52  88 W7        29.94F
Norwich        SUNNY     52  46  82 CALM      29.96F
Oneonta        SUNNY     55  45  67 CALM      29.95S
Penn Yan       MOSUNNY   63  46  54 SW6       29.99R
Rome           MOSUNNY   51  49  92 CALM      29.96S
Sidney         SUNNY     55  54  94 CALM      29.95S
Syracuse       PTSUNNY   56  47  71 W6        29.95R
$$

PAZ038>040-043-044-047-048-072-241300
...Northeast Pennsylvania...

CITY           SKY/WX    TMP DP  RH WIND       PRES   REMARKS
Hazleton       SUNNY     61  45  55 NW6       30.00R
Scranton       MOSUNNY   62  47  57 SW5       29.95S
$$
&&
KEY
WCI = Wind Chill Index
VSB = Visibility
HX  = Heat Index
$$




USA.gov is the U.S. government's official web portal to all federal, state and local government web resources and services.